Litchfield, IL

1:43 PM CST on December 03, 2016 (GMT -0600)
Litchfield

Weather History for K3LF - September, 2012

Change the Weather History Date:

Friday, September 28, 2012

  Actual Average (KALN) Record (KALN)
Temperature  
Mean Temperature 60 °F -  
Max Temperature 69 °F 73 °F 84 °F (1998)
Min Temperature 52 °F 50 °F 46 °F (2001)
Degree Days  
Heating Degree Days 4    
Growing Degree Days 10 (Base 50)    
Moisture  
Dew Point 48 °F    
Average Humidity 65    
Maximum Humidity 86    
Minimum Humidity 44    
Precipitation  
Precipitation 0.00 in - - ()
Sea Level Pressure  
Sea Level Pressure 30.14 in    
Wind  
Wind Speed 7 mph (North)    
Max Wind Speed 14 mph    
Max Gust Speed 16 mph    
Visibility 10 miles    
Events      
Averages and records for this station are not official NWS values.
T = Trace of Precipitation, MM = Missing Value Source: NWS Daily Summary

Daily Weather History Graph

Daily Weather History Graph

Search for Another Location

Airport or City:

Trip Planner

Search our weather history database for the weather conditions in past years. The results will help you decide how hot, cold, wet, or windy it might be!

Date:

Astronomy

Sep. 28, 2012 Rise Set
Actual Time 6:52 AM CDT 6:45 PM CDT
Civil Twilight 6:25 AM CDT 7:11 PM CDT
Nautical Twilight 5:54 AM CDT 7:42 PM CDT
Astronomical Twilight 5:23 AM CDT 8:14 PM CDT
Moon 5:47 PM CDT (9/28) 5:23 AM CDT (9/28)
Length of Visible Light 12h 46m
Length of Day
11h 52m
Waxing Gibbous, 98% of the Moon is Illuminated
Sep 28
Waxing Gibbous
Sep 29
Full
Oct 8
Last Quarter
Oct 15
New
Oct 21
First Quarter

Hourly Weather History & Observations

Time (CDT) Temp. Dew Point Humidity Pressure Visibility Wind Dir Wind Speed Gust Speed Precip Events Conditions
12:15 AM 59.9 °F 47.3 °F 63% 30.15 in 10.0 mi NNE 6.9 mph - N/A   Clear
12:35 AM 60.1 °F 46.8 °F 61% 30.15 in 10.0 mi NNE 4.6 mph - N/A   Clear
12:55 AM 59.2 °F 48.4 °F 67% 30.14 in 10.0 mi NNE 4.6 mph - N/A   Scattered Clouds
1:15 AM 59.5 °F 47.1 °F 63% 30.14 in 10.0 mi NNE 5.8 mph - N/A   Scattered Clouds
1:35 AM 59.5 °F 47.1 °F 63% 30.14 in 10.0 mi NNE 5.8 mph - N/A   Mostly Cloudy
1:55 AM 59.0 °F 47.3 °F 65% 30.14 in 10.0 mi NNE 5.8 mph - N/A   Mostly Cloudy
2:15 AM 59.4 °F 46.6 °F 63% 30.14 in 10.0 mi ENE 6.9 mph - N/A   Mostly Cloudy
2:35 AM 58.6 °F 47.1 °F 66% 30.14 in 10.0 mi ENE 6.9 mph - N/A   Mostly Cloudy
2:55 AM 58.3 °F 48.0 °F 69% 30.14 in 10.0 mi NE 6.9 mph - N/A   Mostly Cloudy
3:15 AM 58.1 °F 48.6 °F 71% 30.14 in 10.0 mi NE 9.2 mph - N/A   Overcast
3:35 AM 57.7 °F 49.3 °F 73% 30.15 in 10.0 mi NE 5.8 mph - N/A   Overcast
3:55 AM 58.1 °F 49.3 °F 72% 30.14 in 10.0 mi NE 5.8 mph - N/A   Overcast
4:15 AM 58.1 °F 49.1 °F 72% 30.14 in 10.0 mi NE 6.9 mph - N/A   Overcast
4:35 AM 57.7 °F 48.9 °F 72% 30.14 in 10.0 mi NNE 9.2 mph - N/A   Overcast
4:55 AM 57.4 °F 48.6 °F 72% 30.14 in 10.0 mi NNE 10.4 mph - N/A   Overcast
5:15 AM 57.6 °F 48.4 °F 71% 30.14 in 10.0 mi NNE 6.9 mph - N/A   Overcast
5:35 AM 56.8 °F 48.9 °F 75% 30.14 in 10.0 mi NNE 6.9 mph - N/A   Mostly Cloudy
5:55 AM 57.2 °F 48.2 °F 72% 30.14 in 10.0 mi NE 5.8 mph - N/A   Scattered Clouds
6:15 AM 56.5 °F 49.3 °F 77% 30.15 in 10.0 mi North 5.8 mph - N/A   Clear
6:35 AM 55.8 °F 49.5 °F 79% 30.15 in 10.0 mi North 4.6 mph - N/A   Clear
6:55 AM 54.9 °F 49.8 °F 83% 30.15 in 10.0 mi NNE 3.5 mph - N/A   Clear
7:15 AM 55.2 °F 50.0 °F 83% 30.15 in 10.0 mi North 5.8 mph - N/A   Clear
7:35 AM 55.4 °F 50.5 °F 84% 30.16 in 10.0 mi North 4.6 mph - N/A   Clear
7:55 AM 55.6 °F 50.2 °F 82% 30.17 in 10.0 mi North 5.8 mph - N/A   Clear
8:15 AM 56.3 °F 51.4 °F 84% 30.18 in 10.0 mi NNW 4.6 mph - N/A   Clear
8:35 AM 57.2 °F 51.3 °F 81% 30.18 in 10.0 mi North 3.5 mph - N/A   Clear
8:55 AM 59.0 °F 50.5 °F 73% 30.19 in 10.0 mi NNE 5.8 mph - N/A   Clear
9:15 AM 60.1 °F 49.6 °F 68% 30.19 in 10.0 mi NNE 9.2 mph - N/A   Clear
9:35 AM 60.8 °F 49.5 °F 66% 30.19 in 10.0 mi NNE 10.4 mph - N/A   Clear
9:55 AM 61.7 °F 48.6 °F 62% 30.19 in 10.0 mi NNE 10.4 mph - N/A   Clear
10:15 AM 62.6 °F 47.3 °F 57% 30.20 in 10.0 mi NNE 10.4 mph - N/A   Clear
10:35 AM 63.7 °F 48.4 °F 57% 30.20 in 10.0 mi NNE 11.5 mph - N/A   Clear
10:55 AM 63.9 °F 47.7 °F 56% 30.19 in 10.0 mi North 11.5 mph - N/A   Clear
11:15 AM 64.6 °F 46.0 °F 51% 30.19 in 10.0 mi North 13.8 mph - N/A   Clear
11:35 AM 64.8 °F 47.3 °F 53% 30.19 in 10.0 mi North 13.8 mph - N/A   Clear
11:55 AM 65.3 °F 47.1 °F 52% 30.18 in 10.0 mi NNE 9.2 mph 16.1 mph N/A   Clear
12:15 PM 66.0 °F 47.7 °F 52% 30.18 in 10.0 mi North 9.2 mph 16.1 mph N/A   Clear
12:35 PM 66.4 °F 45.9 °F 48% 30.17 in 10.0 mi North 8.1 mph - N/A   Clear
12:55 PM 66.9 °F 45.9 °F 47% 30.17 in 10.0 mi NNW 6.9 mph - N/A   Clear
1:15 PM 67.1 °F 45.3 °F 45% 30.16 in 10.0 mi North 9.2 mph - N/A   Clear
1:35 PM 68.0 °F 48.2 °F 49% 30.16 in 10.0 mi NNW 6.9 mph - N/A   Clear
1:55 PM 68.0 °F 46.0 °F 45% 30.15 in 10.0 mi North 5.8 mph 9.2 mph N/A   Clear
2:15 PM 68.5 °F 46.9 °F 46% 30.14 in 10.0 mi North 10.4 mph - N/A   Clear
2:35 PM 68.5 °F 45.5 °F 44% 30.14 in 10.0 mi NNE 5.8 mph 16.1 mph N/A   Clear
2:55 PM 69.1 °F 46.8 °F 45% 30.13 in 10.0 mi NNW 9.2 mph - N/A   Clear
3:15 PM 69.1 °F 46.0 °F 44% 30.13 in 10.0 mi NNW 5.8 mph - N/A   Clear
3:35 PM 69.1 °F 46.4 °F 44% 30.12 in 10.0 mi NNW 4.6 mph - N/A   Clear
3:55 PM 68.7 °F 46.6 °F 45% 30.12 in 10.0 mi NE 5.8 mph - N/A   Clear
4:15 PM 68.2 °F 45.7 °F 44% 30.12 in 10.0 mi North 8.1 mph - N/A   Clear
4:35 PM 68.4 °F 46.4 °F 45% 30.11 in 10.0 mi NNW 3.5 mph - N/A   Clear
4:55 PM 68.5 °F 46.4 °F 45% 30.11 in 10.0 mi NNW 6.9 mph - N/A   Clear
5:15 PM 67.8 °F 46.8 °F 47% 30.11 in 10.0 mi NNW 6.9 mph - N/A   Clear
5:35 PM 66.6 °F 48.0 °F 51% 30.11 in 10.0 mi NNW 4.6 mph - N/A   Clear
5:55 PM 66.4 °F 47.5 °F 51% 30.10 in 10.0 mi NNW 4.6 mph - N/A   Clear
6:15 PM 66.2 °F 46.9 °F 50% 30.10 in 10.0 mi NNW 4.6 mph - N/A   Clear
6:35 PM 65.3 °F 49.3 °F 56% 30.10 in 10.0 mi Calm Calm - N/A   Clear
6:55 PM 63.5 °F 50.2 °F 62% 30.10 in 10.0 mi NW 3.5 mph - N/A   Clear
7:15 PM 61.2 °F 50.0 °F 67% 30.10 in 10.0 mi NW 3.5 mph - N/A   Clear
7:35 PM 60.6 °F 49.5 °F 67% 30.10 in 10.0 mi NW 4.6 mph - N/A   Clear
7:55 PM 59.9 °F 49.1 °F 67% 30.10 in 10.0 mi NW 4.6 mph - N/A   Clear
8:15 PM 58.6 °F 49.1 °F 71% 30.10 in 10.0 mi NW 5.8 mph - N/A   Clear
8:35 PM 57.7 °F 49.5 °F 74% 30.10 in 10.0 mi NNW 4.6 mph - N/A   Clear
8:55 PM 57.2 °F 49.8 °F 76% 30.11 in 10.0 mi North 5.8 mph - N/A   Clear
9:15 PM 56.3 °F 50.0 °F 79% 30.12 in 10.0 mi NNW 5.8 mph - N/A   Clear
9:35 PM 54.7 °F 50.0 °F 84% 30.11 in 10.0 mi NNW 4.6 mph - N/A   Clear
9:55 PM 55.0 °F 49.1 °F 80% 30.12 in 10.0 mi NNW 4.6 mph - N/A   Clear
10:15 PM 54.7 °F 49.1 °F 81% 30.13 in 10.0 mi NNW 3.5 mph - N/A   Clear
10:35 PM 53.8 °F 49.1 °F 84% 30.13 in 10.0 mi NNW 4.6 mph - N/A   Clear
10:55 PM 53.6 °F 49.1 °F 85% 30.13 in 10.0 mi NNW 5.8 mph - N/A   Clear
11:15 PM 53.2 °F 48.6 °F 84% 30.13 in 10.0 mi NNW 4.6 mph - N/A   Clear
11:35 PM 52.9 °F 48.7 °F 86% 30.13 in 10.0 mi NNW 4.6 mph - N/A   Clear
11:55 PM 53.2 °F 48.6 °F 84% 30.13 in 10.0 mi North 5.8 mph - N/A   Clear